Tracking 20232 objects as of 18-Jan-2020
HD Live streaming from Space Station
objects crossing your sky now

FENGYUN 1C DEB

Track FENGYUN 1C DEB now!
10-day predictions


NORAD ID: 37438
Int'l Code: 1999-025EHG
Perigee: 843.0 km
Apogee: 888.1 km
Inclination: 99.0 °
Period: 102.1 minutes
Semi major axis: 7236 km
RCS: 0.0099 m2 (small)
Launch date: May 10, 1999
Source: People's Republic of China (PRC)
Launch site: Taiyaun Space Center, China (TSC)

Note: This is SATELLITE DEBRIS
aabbcc
Your satellite tracking list
Your tracking list is empty




NASA's NSSDC Master Catalog

Two Line Element Set (TLE):
1 37438U 99025EHG 20012.32759133 +.00000252 +00000-0 +16657-3 0  9995
2 37438 098.9703 051.3842 0031118 220.1018 139.7856 14.10282352296334
Source of the keplerian elements: AFSPC